Regional Weather Roundup
Issued by NWS Grand Forks, ND

Home | Current Version | Previous Version | Graphics & Text | Print | Product List | Glossary On
Versions: 1 2 3 4 5 6 7 8 9 10 11 12 13 14 15 16 17 18 19 20 21 22 23 24 25 26 27 28 29 30 31 32 33 34 35 36 37 38 39 40 41 42 43 44 45 46 47 48 49 50
000
ASUS43 KFGF 260431
RWRFGF
PRAIRIE TO PINES  WEATHER ROUNDUP
NATIONAL WEATHER SERVICE EASTERN NORTH DAKOTA/GRAND FORKS ND
1100 PM CDT THU AUG 25 2016

 **SATELLITE DATA USED TO AUGMENT SKY COVER AT AUTOMATED STATIONS**
 *****  WEATHER ACROSS EASTERN NORTH DAKOTA  *****

CITY           SKY/WX    TMP DP  RH WIND       PRES   REMARKS
GRAND FORKS    CLEAR     52  49  89 SW7       30.04S
GRAND FRKS AFB CLEAR     53  50  90 W5        30.05S
DEVILS LAKE    CLEAR     55  50  83 CALM      30.07S
FARGO          MOCLDY    58  50  75 SW7       30.08R
WAHPETON ARPT  CLEAR     54  50  87 SW8       30.12R
$$

 ***** WEATHER ACROSS CENTRAL AND WESTERN NORTH DAKOTA  *****

CITY           SKY/WX    TMP DP  RH WIND       PRES   REMARKS
BISMARCK       CLEAR     54  47  77 CALM      30.13R
MINOT          CLEAR     57  42  57 S5        30.06S
JAMESTOWN      CLEAR     56  50  80 SW7       30.10R
MINOT AFB      CLEAR     54  39  57 S8        30.05S
GARRISON         N/A     51  44  77 CALM      30.09S
WILLISTON      CLOUDY    60  40  47 W5        30.09S
DICKINSON      CLEAR     52  40  63 SW5       30.13S
HETTINGER      CLEAR     51  40  65 CALM      30.18S
$$

 *****  OTHER AIRPORT OBSERVATIONS IN OUR AREA  *****

CITY           SKY/WX    TMP DP  RH WIND       PRES   REMARKS
WALHALLA       FAIR      50  50 100 CALM      30.05R
GRAFTON AIRPOR FAIR      52  52 100 SE3       30.06R
VALLEY CITY AR FAIR      54  54 100 W8        30.12R
CANDO          FAIR      48  48 100 SW7       30.08S
CAVALIER APRT  FAIR      50  48  93 CALM      30.04S
GWINNER        FAIR      54  52  94 SW8       30.13R
SHEYENNE NWR     N/A     52  49  91 CALM      29.95S
ROLLA          FAIR      50  48  93 SW6       30.07S
 ***** THE ABOVE OBSERVATIONS ARE NON NWS ARE NOT QUALITY
       CONTROLLED AND MAY MIS-REPORT RAIN FOR SNOW...
$$

  *****  WEATHER ACROSS NORTHERN MINNESOTA  *****

CITY           SKY/WX    TMP DP  RH WIND       PRES   REMARKS
FLAG ISLAND    CLEAR     61  48  63 CALM      30.02R
WARROAD        MOCLDY    54  48  82 CALM      30.05S
ROSEAU         CLEAR     52  46  82 SW3       30.04F
HALLOCK        CLEAR     54  52  94 CALM      30.04S
THF RVR FALLS  PTCLDY    53  49  86 S3        30.07S
BAUDETTE       CLEAR     51  49  92 SW6       30.04R
WASKISH        CLEAR     61  52  72 W8        30.06S
CROOKSTON      CLEAR     54  48  82 S5        30.07S
STEPHEN NDAWN    N/A     52  48  87 E1          N/A
GREENBUSH NDAW   N/A     48  46  93 S3          N/A
$$
  *****  WEATHER ACROSS CENTRAL AND WEST MINNESOTA  *****

CITY           SKY/WX    TMP DP  RH WIND       PRES   REMARKS
FOSSTON        CLEAR     48  43  81 S3        30.09R
BEMIDJI        CLEAR     51  49  92 CALM      30.08R
PARK RAPIDS    CLEAR     55  51  86 CALM      30.09R
ELBOW LAKE     FAIR      54  53  97 SW7       30.13R
WADENA         CLEAR     52  52 100 SW2       30.10R
DETROIT LAKES  PTCLDY    59  52  77 W5        30.11R
MOORHEAD       CLEAR     57  52  82 SW5       30.10R
FERGUS FALLS   CLEAR     54  54 100 SW3       30.13R
MORRIS MN      CLEAR     55  54  94 W3        30.13R
STAPLES        CLEAR     54  52  94 SW3       30.10R
$$
  *****  WEATHER ELSEWHERE ACROSS MINNESOTA  *****

CITY           SKY/WX    TMP DP  RH WIND       PRES   REMARKS
DULUTH         MOCLDY    59  53  80 NW9       30.05R
INTRNTL FALLS  CLOUDY    55  53  93 CALM      30.04R
ELY            CLOUDY    57  55  94 W5        30.03R
CLOQUET        PTCLDY    57  52  82 W5        30.06S
WHEATON        CLEAR     57  55  94 SW6       30.15R
BRAINERD       CLEAR     56  53  90 SW5       30.09R
HIBBING        CLOUDY    56  53  90 NW9       30.05R
ALEXANDRIA     PTCLDY    56  53  90 SW7       30.13R
SAINT CLOUD    CLOUDY    62  55  77 W6        30.11R
MINNEAPOLIS    CLEAR     64  53  67 W5        30.11R
$$

  *****  WEATHER ACROSS SOUTH DAKOTA  *****

CITY           SKY/WX    TMP DP  RH WIND       PRES   REMARKS
SIOUX FALLS    CLEAR     59  54  83 CALM      30.18R
BROOKINGS      CLEAR     55  51  86 SW3       30.17R
WATERTOWN      CLEAR     55  51  86 CALM      30.16R
HURON          CLEAR     53  49  86 CALM      30.16S
SISSETON         N/A     58  53  84 W7        30.12R
ABERDEEN       CLOUDY    55  51  86 SW5       30.15R
MITCHELL       CLEAR     57  52  83 CALM      30.18R
PIERRE         CLEAR     53  47  79 SE3       30.18R
MOBRIDGE       CLEAR     56  48  74 SE5       30.14S
RAPID CITY     CLEAR     50  44  80 CALM      30.19F
$$

  *****  SOME WEATHER IN NEARBY STATES *****

CITY           SKY/WX    TMP DP  RH WIND       PRES   REMARKS
GLASGOW MT     CLOUDY    57  43  59 N5        30.10S
GREAT FALLS MT PTCLDY    58  38  47 N10       30.17R
CHEYENNE WY    CLOUDY    56  46  69 S10       30.25S
SCOTTSBLUFF NE CLOUDY    60  46  59 E9        30.19R
OMAHA NE       PTCLDY    64  60  87 N7        30.14S
DES MOINES IA  CLEAR     68  62  81 CALM      30.12S
DAVENPORT IA   CLOUDY    64  62  93 N3        30.11S
CHICAGO IL     MOCLDY    69  64  84 W5        30.08R
EAU CLAIRE WI  CLEAR     59  55  87 SW3       30.09R
LA CROSSE WI   CLEAR     67  59  75 W7        30.11R
$$

  *****  SOME NATIONAL WEATHER *****

CITY           SKY/WX    TMP DP  RH WIND       PRES   REMARKS
LA GUARDIA NY  PTCLDY    81  71  71 SW7       29.99F
RALEIGH NC     PTCLDY    79  69  71 CALM      30.08S
ATLANTA GA     PTCLDY    81  70  69 S3        30.13S
NEW ORLEANS LA CLOUDY    82  77  84 NE5       30.04S HX  90
OKLAHOMA CITY  MOCLDY    75  65  70 N13       30.07R
ALBUQUERQUE NM MOCLDY    72  48  42 E13       30.17R
SALT LAKE CITY PTCLDY    73  36  25 SE6       30.00R
LOS ANGELES CA MOCLDY    66  60  81 VRB6      29.91R
BOISE ID       CLEAR     72  38  29 NE3       29.98R
SEATTLE WA     PTCLDY    82  49  31 N9        29.98R
$$

*** WEATHER ACROSS MANITOBA...SASKATCHEWAN AND ONTARIO ***
                ***ONTARIO***

CITY           SKY/WX    TMP DP  RH WIND       PRES   REMARKS
GERALDTON      MOCLDY    52  50  93 N6        29.91S
THUNDER BAY    MOCLDY    59  55  88 W6        29.93R
SIOUX LOOKOUT  CLEAR     43  43 100 CALM      30.00R
TORONTO        PTCLDY    73  68  83 NW14      29.93R
BIG TROUT LK   CLEAR     55  50  82 W6        29.85S
PICKLE LAKE    NOT AVBL
DRYDEN         CLEAR     52  52 100 W3        30.01S
KENORA         PTCLDY    59  48  67 W6        30.02S
$$
                *** MANITOBA***

CITY           SKY/WX    TMP DP  RH WIND       PRES   REMARKS
BRANDON        CLEAR     50  46  87 NE3       30.04S
DAUPHIN        MOCLDY    55  52  88 SW7       30.00F
ISLAND LAKE    PTCLDY    63  55  77 W6        29.88S
PILOT MOUND      N/A     52  48  87 S3          N/A
THE PAS        MOCLDY    61  52  72 SW5       29.91F
THOMPSON       MOCLDY    57  52  82 W2        29.84S
WINNIPEG       PTCLDY    57  52  82 CALM      30.02S
LYNN LAKE      LGT RAIN  55  54  94 MISG      29.93R
CHURCHILL      CLOUDY    52  46  82 N6        29.86S
GILLAM         CLOUDY    59  55  88 SE5       29.80F
$$
                ***SASKATCHEWAN***

CITY           SKY/WX    TMP DP  RH WIND       PRES   REMARKS
ESTEVAN        MOCLDY    55  45  67 NW5       30.06R
KINDERSLEY     PTCLDY    54  52  94 W5        30.05F
LLOYDMINSTER   LGT RAIN  54  54 100 NW5       30.07R
PRINCE ALBERT  MOCLDY    59  52  77 NW9       29.97R
REGINA         MOCLDY    55  52  88 SW6       30.05F
YORKTON        CLEAR     57  50  77 S8        30.01F
N. BATTLEFORD  MOCLDY    55  55 100 NW7       30.04R
LA RONGE       MOCLDY    63  55  77 N6        29.93S THUNDER
SASKATOON      MOCLDY    55  54  94 VRB2      30.00S
SWIFT CURRENT  CLOUDY    55  52  88 W5        30.07S
$$
NOTE: THESE ARE AUTOMATED STATIONS WITH LIMITED QUALITY CONTROL
      "FAIR" INDICATES FEW OR NO CLOUDS BELOW 12,000 FEET WITH NO
      SIGNIFICANT WEATHER AND/OR OBSTRUCTIONS TO VISIBILITY.
      SKY/WX - SKY CONDITION AND SIGNIFICANT WEATHER.
      TMP - AIR TEMPERATURE.    DP   - DEWPOINT TEMPERATURE.
      RH  - RELATIVE HUMIDITY.  PRES - PRESSURE.
      HX  - HEAT INDEX.         WCI  - WIND CHILL INDEX.
$




USA.gov is the U.S. government's official web portal to all federal, state and local government web resources and services.